SL-14 R/B, 17588

Orbit data source: Space-Track

SL-14 R/B, 17588 is space debris in LEO originally from a launch on Fri, 13 Mar 1987 UTC launched from the Plesetsk Missile And Space Complex (PKMTR). Debris objects in space refer to the collection of defunct objects orbiting the Earth. Examples of debris include non-operational satellites, rocket bodies, and fragments generated from explosions, collisions, or faulty payload assembly.

Loading next visibility...
Identifier
17588, 1987-026G
Orbit
LEO
Last TLE update
14 hours ago
Origin
Manufacturer
Yuzhnoe
Mission
Spacecraft
Bus & Motor
S5M, Unknown motor
Mass
1,600 kg wet, 1,600 kg dry
Launch date (UTC)
1987-03-13 (38 years ago)
Launch vehicle
Unknown
Launch site
Plesetsk Missile And Space Complex (PKMTR)
Object type
Payload
Rocket body
Debris
Shape & HBR
Cyl, 2.7 m
Radar Cross Section
7.351 m², Large (>1 m²)

Expand to show TLE details & history

TLE from 14 hours ago
0 SL-14 R/B
1 17588U 87026G   25128.68991646 -.00000006  00000-0 -96993-4 0  9997
2 17588  82.5692 240.4529 0037706 346.4400 127.8967 12.55711907749045
Epoch: 2025-05-08T16:33Z
Definitive object data (Epoch: 2025-05-08T16:33:28.782Z)
Latitude
64.37744°
Longitude
-70.37421°
Altitude
1,469.938 km
Speed
7.125 km/s
True Right ascension
02h 59m 00s
True Declination
64° 15' 19"
Sunlit
Object was in daylight at TLE epoch
Visualization TLE readout
Latitude
-46.59744°
Longitude
-47.15385°
Altitude
1,472.486 km
Speed
7.12 km/s
Apparent Right ascension
03h 39m 25s
Apparent Declination
-44° 16' 08"
Sunlit
Object is in daylight
Visualization observer readout
Local Sidereal Time
14:41:26
Azimuth
243.202° WSW
Elevation
-78.418°
Doppler factor
1
Orbital elements
Apogee altitude
1,467.496 km
Perigee altitude
1,408.553 km
Semi-major axis
7,816.161 km
Eccentricity
0.0037706
Inclination
82.5692°
RAAN
240.4529°
Arg. of periapsis
346.44°
True anomaly
128.23668°
Mean anomaly
127.8967°
Eccentric anomaly
128.06679°
Mean motion
3.14089 °/min
BSTAR
-0.000096993
Orbital period
114.62 mins
Loading maneuver chart data...
Loading SW <> Apogee altitude chart data...
Loading historical data...
Loading historical data...
Loading historical data...
Loading historical data...
Loading historical data...
Loading historical data...
Loading historical data...

SL-14 R/B Visibility forecast

Observer location: undefined°, undefined°

Span
Click to sort rows by Start time (UTC) header in descending order
Start Az.
Max El. time (UTC)
Max El. Az.
Max El.
End time (UTC)
End Az.
14 mins2025-05-09 07:20:35.816Z155.471° SSE2025-05-09 07:27:35.816Z86.938° E35.873°2025-05-09 07:34:35.816Z21.249° NNE
13 mins2025-05-09 09:17:35.816Z231.231° WSW2025-05-09 09:23:35.816Z292.859° NW30.559°2025-05-09 09:30:35.816Z351.61° N
10 mins2025-05-09 17:26:35.816Z28.459° NE2025-05-09 17:31:35.816Z68.727° E18.619°2025-05-09 17:36:35.816Z105.976° ESE
15 mins2025-05-09 19:20:35.816Z351.036° N2025-05-09 19:27:35.816Z297.595° NW44.855°2025-05-09 19:35:35.816Z177.657° S
7 mins2025-05-09 21:18:35.816Z309.064° NW2025-05-09 21:21:35.816Z286.86° WNW15.008°2025-05-09 21:25:35.816Z256.896° W
9 mins2025-05-10 06:20:35.816Z112.292° ESE2025-05-10 06:24:35.816Z79.938° E18.368°2025-05-10 06:29:35.816Z40.944° NE
|